Time,TemperatureF,DewpointF,PressureIn,WindDirection,WindDirectionDegrees,WindSpeedMPH,WindSpeedGustMPH,Humidity,HourlyPrecipIn,Conditions,Clouds,dailyrainin,SoftwareType,DateUTC
2013-05-09 00:03:00,53.0,52.0,29.54,ESE,118,0.0,0.0,95,0.00,,,0.50,,2013-05-09 04:03:00,
2013-05-09 00:12:00,53.0,52.0,29.54,ESE,118,0.0,0.0,95,0.00,,,0.50,,2013-05-09 04:12:00,
2013-05-09 00:23:00,53.0,52.0,29.54,ESE,118,0.0,0.0,95,0.00,,,0.50,,2013-05-09 04:23:00,
2013-05-09 00:33:00,52.0,51.0,29.54,ESE,118,0.0,0.0,96,0.00,,,0.50,,2013-05-09 04:33:00,
2013-05-09 00:43:00,52.0,51.0,29.54,ESE,118,0.0,0.0,96,0.00,,,0.50,,2013-05-09 04:43:00,
2013-05-09 00:53:00,52.0,51.0,29.53,ESE,118,0.0,0.0,96,0.00,,,0.50,,2013-05-09 04:53:00,
2013-05-09 01:02:00,52.0,51.0,29.54,ESE,119,0.0,1.0,96,0.00,,,0.50,,2013-05-09 05:02:00,
2013-05-09 01:12:00,52.0,51.0,29.54,ESE,119,0.0,1.0,96,0.00,,,0.50,,2013-05-09 05:12:00,
2013-05-09 01:22:00,52.0,51.0,29.53,SE,126,0.0,0.0,96,0.00,,,0.50,,2013-05-09 05:22:00,
2013-05-09 01:32:00,52.0,51.0,29.52,East,87,0.0,1.0,96,0.00,,,0.50,,2013-05-09 05:32:00,
2013-05-09 01:42:00,52.0,51.0,29.52,ENE,78,0.0,1.0,96,0.00,,,0.50,,2013-05-09 05:42:00,
2013-05-09 01:52:00,52.0,51.0,29.52,ENE,78,0.0,1.0,96,0.00,,,0.50,,2013-05-09 05:52:00,
2013-05-09 02:02:00,53.0,52.0,29.51,East,91,0.0,3.0,96,0.00,,,0.50,,2013-05-09 06:02:00,
2013-05-09 02:12:00,53.0,52.0,29.51,East,91,0.0,3.0,96,0.00,,,0.50,,2013-05-09 06:12:00,
2013-05-09 02:21:00,53.0,52.0,29.50,East,91,0.0,0.0,96,0.00,,,0.50,,2013-05-09 06:21:00,
2013-05-09 02:32:00,53.0,52.0,29.50,East,91,0.0,0.0,96,0.00,,,0.50,,2013-05-09 06:32:00,
2013-05-09 02:42:00,53.0,52.0,29.49,East,91,0.0,0.0,96,0.00,,,0.50,,2013-05-09 06:42:00,
2013-05-09 02:52:00,53.0,52.0,29.49,East,91,0.0,0.0,96,0.00,,,0.50,,2013-05-09 06:52:00,
2013-05-09 03:01:00,53.0,52.0,29.50,East,91,0.0,0.0,96,0.00,,,0.50,,2013-05-09 07:01:00,
2013-05-09 03:12:00,54.0,53.0,29.49,East,91,0.0,0.0,96,0.00,,,0.50,,2013-05-09 07:12:00,
2013-05-09 03:21:00,54.0,53.0,29.49,East,91,0.0,0.0,96,0.00,,,0.50,,2013-05-09 07:21:00,
2013-05-09 03:32:00,54.0,53.0,29.49,East,92,0.0,1.0,96,0.00,,,0.50,,2013-05-09 07:32:00,
2013-05-09 03:42:00,54.0,53.0,29.49,East,92,0.0,1.0,96,0.00,,,0.50,,2013-05-09 07:42:00,
2013-05-09 03:52:00,53.0,52.0,29.49,SE,128,0.0,1.0,96,0.00,,,0.50,,2013-05-09 07:52:00,
2013-05-09 04:02:00,53.0,52.0,29.48,ESE,102,0.0,1.0,96,0.00,,,0.50,,2013-05-09 08:02:00,
2013-05-09 04:11:00,53.0,52.0,29.48,ESE,102,0.0,1.0,96,0.00,,,0.50,,2013-05-09 08:11:00,
2013-05-09 04:21:00,53.0,52.0,29.48,East,95,0.0,1.0,96,0.00,,,0.50,,2013-05-09 08:21:00,
2013-05-09 04:32:00,53.0,52.0,29.48,East,96,0.0,2.0,96,0.00,,,0.50,,2013-05-09 08:32:00,
2013-05-09 04:42:00,53.0,52.0,29.48,NE,48,0.0,3.0,96,0.00,,,0.50,,2013-05-09 08:42:00,
2013-05-09 04:52:00,53.0,52.0,29.48,NE,48,0.0,3.0,96,0.00,,,0.50,,2013-05-09 08:52:00,
2013-05-09 05:02:00,53.0,52.0,29.47,NE,48,0.0,1.0,96,0.00,,,0.50,,2013-05-09 09:02:00,
2013-05-09 05:11:00,53.0,52.0,29.47,NE,48,0.0,1.0,96,0.00,,,0.50,,2013-05-09 09:11:00,
2013-05-09 05:21:00,53.0,52.0,29.47,ENE,58,0.0,1.0,96,0.00,,,0.50,,2013-05-09 09:21:00,
2013-05-09 05:32:00,54.0,53.0,29.47,ESE,109,0.0,3.0,96,0.00,,,0.50,,2013-05-09 09:32:00,
2013-05-09 05:43:00,53.0,52.0,29.48,East,91,0.0,3.0,96,0.00,,,0.50,,2013-05-09 09:43:00,
2013-05-09 05:53:00,53.0,52.0,29.48,East,91,0.0,3.0,96,0.00,,,0.50,,2013-05-09 09:53:00,
2013-05-09 06:02:00,54.0,53.0,29.47,East,91,0.0,1.0,96,0.00,,,0.50,,2013-05-09 10:02:00,
2013-05-09 06:12:00,54.0,53.0,29.48,NE,52,0.0,1.0,96,0.00,,,0.50,,2013-05-09 10:12:00,
2013-05-09 06:22:00,54.0,53.0,29.48,NE,52,0.0,1.0,96,0.00,,,0.50,,2013-05-09 10:22:00,
2013-05-09 06:33:00,54.0,53.0,29.49,SE,144,0.0,2.0,96,0.00,,,0.50,,2013-05-09 10:33:00,
2013-05-09 06:42:00,54.0,53.0,29.49,SE,144,0.0,2.0,96,0.00,,,0.50,,2013-05-09 10:42:00,
2013-05-09 06:53:00,54.0,53.0,29.48,ENE,76,0.0,2.0,97,0.00,,,0.50,,2013-05-09 10:53:00,
2013-05-09 07:02:00,54.0,53.0,29.49,ENE,76,0.0,1.0,97,0.00,,,0.50,,2013-05-09 11:02:00,
2013-05-09 07:12:00,54.0,53.0,29.48,NW,306,0.0,1.0,96,0.00,,,0.50,,2013-05-09 11:12:00,
2013-05-09 07:22:00,54.0,53.0,29.48,NW,306,0.0,1.0,96,0.00,,,0.50,,2013-05-09 11:22:00,
2013-05-09 07:32:00,54.0,53.0,29.48,ENE,66,0.0,3.0,96,0.00,,,0.47,,2013-05-09 11:32:00,
2013-05-09 07:42:00,54.0,53.0,29.48,ENE,66,0.0,3.0,96,0.00,,,0.47,,2013-05-09 11:42:00,
2013-05-09 07:52:00,54.0,53.0,29.48,ENE,65,0.0,2.0,97,0.00,,,0.47,,2013-05-09 11:52:00,
2013-05-09 08:01:00,54.0,53.0,29.48,ENE,65,0.0,2.0,97,0.00,,,0.47,,2013-05-09 12:01:00,
2013-05-09 08:11:00,54.0,53.0,29.48,ENE,65,0.0,2.0,97,0.00,,,0.47,,2013-05-09 12:11:00,
2013-05-09 08:22:00,54.0,53.0,29.48,ENE,65,0.0,2.0,97,0.00,,,0.47,,2013-05-09 12:22:00,
2013-05-09 08:32:00,55.0,54.0,29.48,ESE,110,0.0,3.0,97,0.00,,,0.41,,2013-05-09 12:32:00,
2013-05-09 08:43:00,55.0,54.0,29.48,ESE,109,0.0,2.0,96,0.00,,,0.41,,2013-05-09 12:43:00,
2013-05-09 08:52:00,55.0,54.0,29.48,ESE,109,0.0,2.0,96,0.00,,,0.41,,2013-05-09 12:52:00,
2013-05-09 09:01:00,55.0,54.0,29.48,East,96,0.0,2.0,97,0.00,,,0.41,,2013-05-09 13:01:00,
2013-05-09 09:12:00,55.0,54.0,29.48,East,96,0.0,2.0,97,0.00,,,0.41,,2013-05-09 13:12:00,
2013-05-09 09:22:00,55.0,54.0,29.48,East,94,0.0,2.0,97,0.00,,,0.41,,2013-05-09 13:22:00,
2013-05-09 09:32:00,56.0,55.0,29.47,ENE,62,0.0,3.0,97,0.00,,,0.41,,2013-05-09 13:32:00,
2013-05-09 09:42:00,56.0,55.0,29.47,ENE,59,0.0,3.0,97,0.00,,,0.41,,2013-05-09 13:42:00,
2013-05-09 09:52:00,56.0,55.0,29.47,ENE,59,0.0,3.0,97,0.00,,,0.41,,2013-05-09 13:52:00,
2013-05-09 10:02:00,56.0,55.0,29.47,NE,37,0.0,2.0,97,0.00,,,0.41,,2013-05-09 14:02:00,
2013-05-09 10:11:00,56.0,55.0,29.47,NE,37,0.0,2.0,97,0.00,,,0.41,,2013-05-09 14:11:00,
2013-05-09 10:22:00,56.0,55.0,29.47,East,87,0.0,3.0,97,0.00,,,0.41,,2013-05-09 14:22:00,
2013-05-09 10:32:00,56.0,55.0,29.47,NE,46,0.0,1.0,97,0.00,,,0.36,,2013-05-09 14:32:00,
2013-05-09 10:42:00,56.0,55.0,29.47,South,182,0.0,3.0,97,0.00,,,0.36,,2013-05-09 14:42:00,
2013-05-09 10:52:00,56.0,55.0,29.47,South,182,0.0,3.0,97,0.00,,,0.36,,2013-05-09 14:52:00,
2013-05-09 11:01:00,56.0,55.0,29.47,NE,35,0.0,1.0,97,0.01,,,0.37,,2013-05-09 15:01:00,
2013-05-09 11:11:00,56.0,55.0,29.47,NE,35,0.0,1.0,97,0.01,,,0.37,,2013-05-09 15:11:00,
2013-05-09 11:22:00,56.0,55.0,29.47,NE,43,0.0,1.0,97,0.03,,,0.39,,2013-05-09 15:22:00,
2013-05-09 11:33:00,56.0,55.0,29.47,SSE,153,0.0,1.0,96,0.04,,,0.31,,2013-05-09 15:33:00,
2013-05-09 11:43:00,56.0,55.0,29.47,East,89,0.0,0.0,97,0.06,,,0.33,,2013-05-09 15:43:00,
2013-05-09 11:53:00,56.0,55.0,29.47,East,89,0.0,0.0,97,0.06,,,0.33,,2013-05-09 15:53:00,
2013-05-09 12:03:00,56.0,55.0,29.47,ENE,63,0.0,1.0,97,0.07,,,0.35,,2013-05-09 16:03:00,
2013-05-09 12:12:00,56.0,55.0,29.47,ENE,63,0.0,1.0,97,0.07,,,0.35,,2013-05-09 16:12:00,
2013-05-09 12:23:00,57.0,56.0,29.46,North,355,0.0,2.0,97,0.05,,,0.35,,2013-05-09 16:23:00,
2013-05-09 12:33:00,57.0,56.0,29.46,North,360,0.0,0.0,97,0.05,,,0.36,,2013-05-09 16:33:00,
2013-05-09 12:42:00,57.0,56.0,29.45,North,360,0.0,0.0,97,0.06,,,0.39,,2013-05-09 16:42:00,
2013-05-09 12:53:00,57.0,56.0,29.45,North,360,0.0,0.0,97,0.06,,,0.39,,2013-05-09 16:53:00,
2013-05-09 13:02:00,57.0,56.0,29.45,North,360,0.0,0.0,96,0.06,,,0.41,,2013-05-09 17:02:00,
2013-05-09 13:12:00,57.0,56.0,29.45,North,360,0.0,0.0,96,0.06,,,0.41,,2013-05-09 17:12:00,
2013-05-09 13:21:00,57.0,56.0,29.45,North,360,0.0,0.0,97,0.07,,,0.42,,2013-05-09 17:21:00,
2013-05-09 13:32:00,57.0,56.0,29.45,North,360,0.0,0.0,97,0.08,,,0.44,,2013-05-09 17:32:00,
2013-05-09 13:42:00,57.0,56.0,29.45,North,360,0.0,0.0,97,0.08,,,0.44,,2013-05-09 17:42:00,
2013-05-09 13:55:00,58.0,57.0,29.45,North,360,0.0,0.0,96,0.08,,,0.47,,2013-05-09 17:55:00,
2013-05-09 14:01:00,57.0,56.0,29.44,WNW,288,0.0,0.0,96,0.06,,,0.47,,2013-05-09 18:01:00,
2013-05-09 14:12:00,57.0,56.0,29.44,WNW,288,0.0,0.0,96,0.06,,,0.47,,2013-05-09 18:12:00,
2013-05-09 14:21:00,56.0,55.0,29.44,WNW,288,0.0,0.0,97,0.06,,,0.48,,2013-05-09 18:21:00,
2013-05-09 14:32:00,57.0,56.0,29.44,NNW,348,0.0,2.0,97,0.06,,,0.26,,2013-05-09 18:32:00,
2013-05-09 14:42:00,57.0,56.0,29.44,NNW,348,0.0,2.0,97,0.06,,,0.26,,2013-05-09 18:42:00,
2013-05-09 14:52:00,57.0,56.0,29.44,NE,42,0.0,2.0,96,0.06,,,0.28,,2013-05-09 18:52:00,
2013-05-09 15:01:00,58.0,57.0,29.43,NE,41,0.0,1.0,97,0.06,,,0.28,,2013-05-09 19:01:00,
2013-05-09 15:12:00,58.0,57.0,29.43,NE,41,0.0,1.0,97,0.06,,,0.28,,2013-05-09 19:12:00,
2013-05-09 15:21:00,58.0,57.0,29.43,NE,41,0.0,1.0,96,0.05,,,0.28,,2013-05-09 19:21:00,
2013-05-09 15:32:00,59.0,58.0,29.43,NE,41,0.0,1.0,96,0.01,,,0.26,,2013-05-09 19:32:00,
2013-05-09 15:41:00,58.0,57.0,29.42,NE,41,0.0,1.0,96,0.00,,,0.26,,2013-05-09 19:41:00,
2013-05-09 15:52:00,58.0,57.0,29.42,NE,41,0.0,1.0,96,0.00,,,0.26,,2013-05-09 19:52:00,
2013-05-09 16:01:00,59.0,58.0,29.42,NE,41,0.0,1.0,96,0.00,,,0.26,,2013-05-09 20:01:00,
2013-05-09 16:11:00,59.0,58.0,29.42,NE,41,0.0,1.0,96,0.00,,,0.26,,2013-05-09 20:11:00,
2013-05-09 16:22:00,59.0,58.0,29.42,NW,311,0.0,0.0,96,0.00,,,0.26,,2013-05-09 20:22:00,
2013-05-09 16:32:00,59.0,58.0,29.42,NW,311,0.0,0.0,96,0.00,,,0.26,,2013-05-09 20:32:00,
2013-05-09 16:42:00,60.0,58.0,29.42,NNW,336,0.0,0.0,94,0.00,,,0.26,,2013-05-09 20:42:00,
2013-05-09 16:52:00,60.0,58.0,29.42,NNW,336,0.0,0.0,94,0.00,,,0.26,,2013-05-09 20:52:00,
2013-05-09 17:02:00,61.0,59.0,29.42,ENE,65,0.0,2.0,92,0.00,,,0.26,,2013-05-09 21:02:00,
2013-05-09 17:12:00,61.0,59.0,29.42,ENE,65,0.0,2.0,92,0.00,,,0.26,,2013-05-09 21:12:00,
2013-05-09 17:22:00,61.0,58.0,29.41,NNE,24,0.0,2.0,89,0.00,,,0.26,,2013-05-09 21:22:00,
2013-05-09 17:32:00,62.0,58.0,29.41,NW,323,0.0,2.0,87,0.00,,,0.26,,2013-05-09 21:32:00,
2013-05-09 17:43:00,62.0,58.0,29.41,NW,323,0.0,2.0,87,0.00,,,0.26,,2013-05-09 21:43:00,
2013-05-09 17:52:00,62.0,58.0,29.41,NW,323,0.0,2.0,87,0.00,,,0.26,,2013-05-09 21:52:00,
2013-05-09 18:03:00,62.0,57.0,29.41,NW,306,0.0,2.0,85,0.00,,,0.26,,2013-05-09 22:03:00,
2013-05-09 18:13:00,62.0,58.0,29.42,NW,306,0.0,0.0,88,0.00,,,0.26,,2013-05-09 22:13:00,
2013-05-09 18:23:00,62.0,58.0,29.42,NW,306,0.0,0.0,88,0.00,,,0.26,,2013-05-09 22:23:00,
2013-05-09 18:33:00,62.0,58.0,29.42,NW,306,0.0,0.0,88,0.00,,,0.26,,2013-05-09 22:33:00,
2013-05-09 18:42:00,62.0,59.0,29.42,NW,306,0.0,0.0,89,0.00,,,0.26,,2013-05-09 22:42:00,
2013-05-09 18:52:00,62.0,59.0,29.42,NW,306,0.0,0.0,89,0.00,,,0.26,,2013-05-09 22:52:00,
2013-05-09 19:02:00,62.0,59.0,29.42,NW,306,0.0,0.0,89,0.00,,,0.26,,2013-05-09 23:02:00,
2013-05-09 19:12:00,62.0,59.0,29.43,NW,306,0.0,0.0,89,0.00,,,0.26,,2013-05-09 23:12:00,
2013-05-09 19:22:00,62.0,59.0,29.43,NW,306,0.0,0.0,89,0.00,,,0.26,,2013-05-09 23:22:00,
2013-05-09 19:32:00,61.0,58.0,29.43,NW,306,0.0,0.0,90,0.00,,,0.26,,2013-05-09 23:32:00,
2013-05-09 19:42:00,60.0,57.0,29.44,NW,306,0.0,0.0,90,0.00,,,0.26,,2013-05-09 23:42:00,
2013-05-09 19:52:00,60.0,57.0,29.44,NW,306,0.0,0.0,90,0.00,,,0.26,,2013-05-09 23:52:00,
2013-05-09 20:01:00,60.0,57.0,29.44,NW,306,0.0,0.0,91,0.00,,,0.26,,2013-05-10 00:01:00,
2013-05-09 20:11:00,59.0,56.0,29.44,NW,306,0.0,0.0,90,0.00,,,0.26,,2013-05-10 00:11:00,
2013-05-09 20:22:00,59.0,56.0,29.44,NW,306,0.0,0.0,90,0.00,,,0.26,,2013-05-10 00:22:00,
2013-05-09 20:32:00,59.0,56.0,29.44,NW,306,0.0,0.0,91,0.00,,,0.26,,2013-05-10 00:32:00,
2013-05-09 20:42:00,59.0,56.0,29.45,NW,306,0.0,0.0,91,0.00,,,0.26,,2013-05-10 00:42:00,
2013-05-09 20:52:00,59.0,56.0,29.45,NW,306,0.0,0.0,91,0.00,,,0.26,,2013-05-10 00:52:00,
2013-05-09 21:01:00,59.0,57.0,29.45,NW,306,0.0,0.0,92,0.00,,,0.26,,2013-05-10 01:01:00,
2013-05-09 21:11:00,59.0,57.0,29.45,NW,306,0.0,0.0,92,0.00,,,0.26,,2013-05-10 01:11:00,
2013-05-09 21:21:00,59.0,57.0,29.45,NW,306,0.0,0.0,92,0.00,,,0.26,,2013-05-10 01:21:00,
2013-05-09 21:32:00,59.0,57.0,29.45,NW,306,0.0,0.0,92,0.00,,,0.26,,2013-05-10 01:32:00,
2013-05-09 21:42:00,58.0,56.0,29.47,NW,306,0.0,0.0,94,0.00,,,0.26,,2013-05-10 01:42:00,
2013-05-09 21:52:00,58.0,56.0,29.47,NW,306,0.0,0.0,94,0.00,,,0.26,,2013-05-10 01:52:00,
2013-05-09 22:02:00,58.0,56.0,29.47,NW,306,0.0,0.0,94,0.00,,,0.26,,2013-05-10 02:02:00,
2013-05-09 22:11:00,58.0,57.0,29.47,NW,306,0.0,0.0,95,0.00,,,0.26,,2013-05-10 02:11:00,
2013-05-09 22:21:00,58.0,57.0,29.47,NW,306,0.0,0.0,95,0.00,,,0.26,,2013-05-10 02:21:00,
2013-05-09 22:32:00,57.0,56.0,29.47,NW,306,0.0,0.0,95,0.00,,,0.26,,2013-05-10 02:32:00,
2013-05-09 22:42:00,57.0,56.0,29.46,NW,306,0.0,0.0,95,0.00,,,0.26,,2013-05-10 02:42:00,
2013-05-09 22:52:00,57.0,56.0,29.46,NW,306,0.0,0.0,95,0.00,,,0.26,,2013-05-10 02:52:00,
2013-05-09 23:01:00,56.0,55.0,29.46,NW,306,0.0,0.0,95,0.00,,,0.26,,2013-05-10 03:01:00,
2013-05-09 23:11:00,56.0,55.0,29.46,NW,306,0.0,0.0,95,0.00,,,0.26,,2013-05-10 03:11:00,
2013-05-09 23:22:00,56.0,55.0,29.46,NW,306,0.0,0.0,95,0.00,,,0.26,,2013-05-10 03:22:00,
2013-05-09 23:33:00,56.0,55.0,29.46,NW,306,0.0,0.0,95,0.00,,,0.26,,2013-05-10 03:33:00,
2013-05-09 23:43:00,56.0,55.0,29.46,NW,306,0.0,0.0,95,0.00,,,0.26,,2013-05-10 03:43:00,
2013-05-09 23:53:00,56.0,55.0,29.47,NW,306,0.0,0.0,95,0.00,,,0.26,,2013-05-10 03:53:00,